Regional Weather Roundup
Issued by NWS

Home | Current Version | Previous Version | Text Only | Print | Product List | Glossary Off
Versions: 1 2 3 4 5 6 7 8 9 10 11 12 13 14 15 16 17 18 19 20 21 22 23 24 25 26 27 28 29 30 31 32 33 34 35 36 37 38 39 40 41 42 43 44 45 46 47 48 49 50

000
ASUS44 KMEG 152210
RWRTN
TENNESSEE HOURLY STATE WEATHER ROUNDUP
NATIONAL WEATHER SERVICE MEMPHIS TN
500 PM CDT MON SEP 15 2014

TNZ002-004-019-021-049-052-054-088>092-152300-
WEST TENNESSEE

CITY           SKY/WX    TMP DP  RH WIND       PRES   REMARKS
MEMPHIS INTL   CLOUDY    80  64  58 SW5       30.10F
NWS MEMPHIS      N/A     80 N/A N/A MISG        N/A
JACKSON        CLOUDY    77  61  57 CALM      30.10F
DYERSBURG      CLOUDY    73  57  56 S3        30.11S
UNION CITY     SUNNY     73  63  68 S6        30.08F
PARIS          SUNNY     72  57  60 SW5       30.11F
HUNTINGDON     CLOUDY    71  63  76 CALM      30.10F
LEXINGTON      SUNNY     75  64  69 CALM      30.10F
SAVANNAH       SUNNY     81  66  61 N7        30.10F
$$

TNZ008-025-027-028-033-062-065-066-152300-
NORTH MIDDLE TENNESSEE

CITY           SKY/WX    TMP DP  RH WIND       PRES   REMARKS
NASHVILLE      CLOUDY    72  64  76 CALM      30.12S
DICKSON        CLOUDY    70  61  73 S3        30.11F
PORTLAND       CLOUDY    72  61  68 CALM      30.11F
CLARKSVILLE    CLOUDY    72  61  68 S6        30.10F
LEBANON        CLOUDY    72  63  73 CALM      30.10F
SMYRNA         CLOUDY    73  64  73 CALM      30.12F
MURFREESBORO   CLOUDY    75  64  68 N5        30.10F
COOKEVILLE     SUNNY     72  66  83 CALM      30.13F
GALLATIN       CLOUDY    74  63  68 N3        30.12F
CROSSVILLE     LGT RAIN  71  62  73 CALM      30.17F
$$

TNZ061-075-076-078-094-096-097-152300-
SOUTH MIDDLE TENNESSEE

CITY           SKY/WX    TMP DP  RH WIND       PRES   REMARKS
LEWISBURG      CLOUDY    79  67  66 N6        30.10F
FAYETTEVILLE   SUNNY     79  66  65 CALM      30.11S
TULLAHOMA      MOSUNNY   75  70  83 CALM      30.12F
WINCHESTER     CLOUDY    79  70  73 N8        30.11S
MCMINNVILLE    SUNNY     75  70  83 NE6       30.12F
COLUMBIA       SUNNY     79  64  61 VRB3      30.09F
SHELBYVILLE    MOSUNNY   79  68  69 NE7       30.11F
$$

TNZ017-018-042-046-047-152300-
NORTHEAST TENNESSEE

CITY           SKY/WX    TMP DP  RH WIND       PRES   REMARKS
TRI CITIES     CLOUDY    74  61  63 W3        30.14F
ELIZABETHTON   CLEAR     72  61  68 VRB3      30.16S
$$

TNZ012-013-036-069-073-074-152300-
CENTRAL EAST TENNESSEE

CITY           SKY/WX    TMP DP  RH WIND       PRES   REMARKS
KNOXVILLE      LGT RAIN  75  67  76 W5        30.12
OAK RIDGE      LGT RAIN  73  68  84 CALM      30.15S
GATLINBURG     MOCLDY    75  66  73 NW8       30.13R
MORRISTOWN     CLEAR     73  66  78 N5        30.16S
$$

TNZ083-085-099-152300-
SOUTHEAST TENNESSEE

CITY           SKY/WX    TMP DP  RH WIND       PRES   REMARKS
CHATTANOOGA    PTSUNNY   79  68  69 VRB3      30.10F
$$

SKY/WX REPORTED AS FAIR MEANS FEW OR NO CLOUDS BELOW
12 THOUSAND FEET.




USA.gov is the U.S. government's official web portal to all federal, state and local government web resources and services.